Weather History for Galesburg, IL

Change the Weather History Date:

Wednesday, April 9, 2014

  Actual Average Record
Temperature  
Mean Temperature 48 °F -  
Max Temperature 64 °F 57 °F 79 °F (1978)
Min Temperature 31 °F 36 °F 23 °F (1989)
Degree Days  
Heating Degree Days 18    
Moisture  
Dew Point 33 °F    
Average Humidity 61    
Maximum Humidity 100    
Minimum Humidity 31    
Precipitation  
Precipitation 0.00 in - - ()
Sea Level Pressure  
Sea Level Pressure 29.97 in    
Wind  
Wind Speed 8 mph (WSW)    
Max Wind Speed 18 mph    
Max Gust Speed 24 mph    
Visibility 10 miles    
Events      
Averages and records for this station are not official NWS values.
T = Trace of Precipitation, MM = Missing Value Source: NWS Daily Summary

Daily Weather History Graph

Daily Weather History Graph

Search for Another Location

Airport:

Trip Planner

Search our weather history database for the weather conditions in past years. The results will help you decide how hot, cold, wet, or windy it might be!

Date:

Astronomy

Apr. 09, 2014 Rise Set
Actual Time 6:32 AM CDT 7:35 PM CDT
Civil Twilight 6:04 AM CDT 8:03 PM CDT
Nautical Twilight 5:30 AM CDT 8:36 PM CDT
Astronomical Twilight 4:55 AM CDT 9:11 PM CDT
Moon 2:21 PM CDT (4/9) 3:23 AM CDT (4/9)
Length of Visible Light 13h 59m
Length of Day
13h 03m
Waxing Gibbous, 72% of the Moon is Illuminated
Apr 9
Waxing Gibbous
Apr 15
Full
Apr 22
Last Quarter
Apr 29
New
May 6
First Quarter

Hourly Weather History & Observations

Time (CDT) Temp. Windchill Dew Point Humidity Pressure Visibility Wind Dir Wind Speed Gust Speed Precip Events Conditions
12:15 AM 39.9 °F 34.5 °F 34.9 °F 82% 29.99 in 10.0 mi WNW 8.1 mph - N/A   Clear
12:35 AM 39.6 °F 36.3 °F 34.7 °F 83% 30.00 in 10.0 mi WNW 4.6 mph - N/A   Clear
12:55 AM 37.6 °F 34.0 °F 34.2 °F 87% 30.00 in 10.0 mi WNW 4.6 mph - N/A   Clear
1:15 AM 35.6 °F 30.7 °F 32.9 °F 90% 30.00 in 10.0 mi West 5.8 mph - N/A   Clear
1:35 AM 34.7 °F 29.6 °F 32.5 °F 92% 30.00 in 10.0 mi West 5.8 mph - N/A   Clear
1:55 AM 34.5 °F 28.6 °F 32.5 °F 92% 30.00 in 10.0 mi West 6.9 mph - N/A   Clear
2:15 AM 36.3 °F 30.1 °F 33.8 °F 91% 30.00 in 10.0 mi WNW 8.1 mph - N/A   Clear
2:35 AM 36.0 °F 31.1 °F 33.4 °F 91% 30.00 in 10.0 mi WNW 5.8 mph - N/A   Clear
2:55 AM 34.7 °F 28.1 °F 32.5 °F 92% 30.00 in 10.0 mi WNW 8.1 mph - N/A   Clear
3:15 AM 34.0 °F 28.0 °F 32.2 °F 93% 30.00 in 10.0 mi West 6.9 mph - N/A   Clear
3:35 AM 33.6 °F 28.4 °F 32.7 °F 96% 30.00 in 10.0 mi WNW 5.8 mph - N/A   Clear
3:55 AM 32.0 °F - 31.3 °F 97% 30.00 in 10.0 mi Calm Calm - N/A   Clear
4:15 AM 32.0 °F 28.7 °F 31.6 °F 99% 30.00 in 10.0 mi WNW 3.5 mph - N/A   Clear
4:35 AM 31.1 °F 25.4 °F 30.6 °F 98% 30.01 in 10.0 mi West 5.8 mph - N/A   Clear
4:55 AM 32.0 °F 27.5 °F 31.6 °F 99% 30.00 in 10.0 mi West 4.6 mph - N/A   Clear
5:15 AM 31.3 °F 25.6 °F 30.9 °F 99% 30.00 in 10.0 mi West 5.8 mph - N/A   Clear
5:35 AM 31.8 °F 24.6 °F 31.1 °F 97% 30.02 in 10.0 mi West 8.1 mph - N/A   Clear
5:55 AM 32.0 °F 26.4 °F 32.0 °F 100% 30.02 in 10.0 mi West 5.8 mph - N/A   Clear
6:15 AM 32.0 °F 25.6 °F 31.6 °F 99% 30.03 in 10.0 mi West 6.9 mph - N/A   Clear
6:35 AM 31.6 °F 26.0 °F 31.1 °F 98% 30.03 in 10.0 mi West 5.8 mph - N/A   Clear
6:55 AM 32.0 °F 25.6 °F 31.3 °F 97% 30.04 in 10.0 mi West 6.9 mph - N/A   Clear
7:15 AM 32.7 °F 28.3 °F 32.0 °F 97% 30.05 in 10.0 mi West 4.6 mph - N/A   Clear
7:35 AM 34.3 °F 31.4 °F 33.4 °F 97% 30.05 in 10.0 mi West 3.5 mph - N/A   Clear
7:55 AM 37.0 °F 32.4 °F 34.9 °F 92% 30.06 in 10.0 mi WNW 5.8 mph - N/A   Clear
8:15 AM 39.4 °F 35.2 °F 36.5 °F 89% 30.06 in 10.0 mi West 5.8 mph - N/A   Clear
8:35 AM 41.4 °F 36.2 °F 36.7 °F 83% 30.07 in 10.0 mi WNW 8.1 mph - N/A   Clear
8:55 AM 42.8 °F 37.5 °F 36.7 °F 79% 30.08 in 10.0 mi West 9.2 mph - N/A   Clear
9:15 AM 44.6 °F 40.2 °F 37.2 °F 75% 30.08 in 10.0 mi WNW 8.1 mph - N/A   Clear
9:35 AM 46.9 °F - 36.7 °F 68% 30.08 in 10.0 mi West 8.1 mph - N/A   Clear
9:55 AM 49.3 °F - 36.0 °F 60% 30.07 in 10.0 mi West 9.2 mph - N/A   Clear
10:15 AM 51.8 °F - 34.5 °F 52% 30.07 in 10.0 mi WSW 8.1 mph - N/A   Clear
10:35 AM 52.2 °F - 34.3 °F 51% 30.07 in 10.0 mi West 9.2 mph 16.1 mph N/A   Clear
10:55 AM 53.4 °F - 33.3 °F 46% 30.06 in 10.0 mi SW 6.9 mph - N/A   Clear
11:15 AM 54.1 °F - 33.8 °F 46% 30.05 in 10.0 mi WSW 8.1 mph - N/A   Clear
11:35 AM 55.4 °F - 33.1 °F 43% 30.05 in 10.0 mi WNW 8.1 mph - N/A   Clear
11:55 AM 56.3 °F - 34.0 °F 43% 30.04 in 10.0 mi SW 6.9 mph - N/A   Clear
12:15 PM 56.8 °F - 33.6 °F 42% 30.03 in 10.0 mi WNW 3.5 mph - N/A   Clear
12:35 PM 57.6 °F - 32.9 °F 39% 30.02 in 10.0 mi SW 6.9 mph - N/A   Clear
12:55 PM 59.0 °F - 32.2 °F 36% 30.02 in 10.0 mi WSW 12.7 mph - N/A   Clear
1:15 PM 59.5 °F - 32.2 °F 36% 30.01 in 10.0 mi SW 10.4 mph - N/A   Clear
1:35 PM 60.8 °F - 31.8 °F 34% 30.00 in 10.0 mi SW 5.8 mph - N/A   Clear
1:55 PM 61.3 °F - 33.4 °F 35% 29.99 in 10.0 mi SSW 15.0 mph 21.9 mph N/A   Clear
2:15 PM 61.9 °F - 31.8 °F 32% 29.98 in 10.0 mi SW 11.5 mph 17.3 mph N/A   Clear
2:35 PM 62.6 °F - 31.5 °F 31% 29.97 in 10.0 mi WSW 6.9 mph 18.4 mph N/A   Clear
2:55 PM 63.0 °F - 31.8 °F 31% 29.96 in 10.0 mi SSW 12.7 mph 19.6 mph N/A   Clear
3:15 PM 64.0 °F - 33.8 °F 32% 29.95 in 10.0 mi SW 16.1 mph 20.7 mph N/A   Clear
3:35 PM 64.0 °F - 33.3 °F 32% 29.94 in 10.0 mi SSW 13.8 mph 21.9 mph N/A   Clear
3:55 PM 63.9 °F - 32.9 °F 31% 29.93 in 10.0 mi SSW 13.8 mph 21.9 mph N/A   Clear
4:15 PM 64.6 °F - 33.1 °F 31% 29.92 in 10.0 mi SSW 18.4 mph 21.9 mph N/A   Clear
4:35 PM 64.2 °F - 32.7 °F 31% 29.90 in 10.0 mi South 17.3 mph 24.2 mph N/A   Clear
4:55 PM 64.4 °F - 33.6 °F 32% 29.89 in 10.0 mi South 16.1 mph 23.0 mph N/A   Clear
5:15 PM 64.0 °F - 33.6 °F 32% 29.89 in 10.0 mi South 15.0 mph 23.0 mph N/A   Clear
5:35 PM 64.0 °F - 33.4 °F 32% 29.88 in 10.0 mi South 18.4 mph 24.2 mph N/A   Clear
5:55 PM 63.1 °F - 32.9 °F 32% 29.87 in 10.0 mi South 16.1 mph 21.9 mph N/A   Clear
6:15 PM 62.6 °F - 33.4 °F 34% 29.87 in 10.0 mi South 16.1 mph 23.0 mph N/A   Clear
6:35 PM 61.7 °F - 33.8 °F 35% 29.86 in 10.0 mi South 15.0 mph 19.6 mph N/A   Clear
6:55 PM 60.8 °F - 33.6 °F 36% 29.86 in 10.0 mi South 11.5 mph - N/A   Clear
7:15 PM 59.7 °F - 33.6 °F 37% 29.86 in 10.0 mi South 9.2 mph - N/A   Clear
7:35 PM 58.1 °F - 33.3 °F 39% 29.86 in 10.0 mi South 9.2 mph - N/A   Clear
7:55 PM 56.8 °F - 34.0 °F 42% 29.86 in 10.0 mi South 8.1 mph - N/A   Clear
8:15 PM 55.4 °F - 34.7 °F 46% 29.86 in 10.0 mi South 8.1 mph - N/A   Clear
8:35 PM 54.9 °F - 34.7 °F 47% 29.87 in 10.0 mi South 9.2 mph - N/A   Clear
8:55 PM 54.7 °F - 34.5 °F 47% 29.88 in 10.0 mi South 8.1 mph - N/A   Clear
9:15 PM 53.8 °F - 34.5 °F 48% 29.88 in 10.0 mi South 8.1 mph - N/A   Clear
9:35 PM 53.1 °F - 34.7 °F 50% 29.88 in 10.0 mi South 8.1 mph - N/A   Clear
9:55 PM 52.5 °F - 34.9 °F 51% 29.87 in 10.0 mi South 6.9 mph - N/A   Clear
10:15 PM 51.1 °F - 34.9 °F 54% 29.87 in 10.0 mi SSE 6.9 mph - N/A   Clear
10:35 PM 50.5 °F - 34.9 °F 55% 29.86 in 10.0 mi SSE 9.2 mph - N/A   Clear
10:55 PM 50.9 °F - 35.1 °F 55% 29.85 in 10.0 mi SSE 9.2 mph - N/A   Clear
11:15 PM 52.0 °F - 34.7 °F 52% 29.84 in 10.0 mi South 10.4 mph - N/A   Clear
11:35 PM 52.7 °F - 34.3 °F 50% 29.83 in 10.0 mi South 10.4 mph - N/A   Clear
11:55 PM 52.3 °F - 34.5 °F 51% 29.82 in 10.0 mi South 11.5 mph 17.3 mph N/A   Clear